Location: Yellowknife
(62.4500°N, 114.3500°W)
Time: 12:27:13
(UTC-07:00)

Amateur Radio Satellites - All Passes

Search period start: 20 December 2014 11:57
Search period end: 21 December 2014 11:57
Location: Yellowknife, 62.4500°N, 114.3500°W

Satellite Date Start Highest point End Downlink Frequencies (MHz)
Time Altitude Azimuth
POLYITAN 1 20 Dec 12:01:22 12:04:08 17° 275° (W) 12:06:56 437.675
DANDE 20 Dec 12:03:53 12:08:06 42° 306° (NW) 12:13:46 436.750
NANOSAT C BR1 20 Dec 12:03:57 12:06:38 16° 275° (W) 12:09:20 145.865
JAS-2 20 Dec 12:05:15 12:08:52 16° 12° (NNE) 12:12:18 435.910
AO-7 20 Dec 12:07:18 12:14:25 33° 22° (NNE) 12:21:33 29.400- 29.500
CUTE-I 20 Dec 12:07:45 12:09:08 11° 351° (N) 12:10:32 437.470
ANTELSAT 20 Dec 12:08:41 12:10:53 13° 281° (W) 12:13:05 437.575/2403.000
HO-68 20 Dec 12:11:58 12:18:36 43° 316° (NW) 12:25:13 435.675
BRITE-PL 20 Dec 12:12:25 12:15:36 20° 314° (NW) 12:18:56 437.365/2234.400
TISAT 1 20 Dec 12:14:09 12:17:43 26° 92° (E) 12:21:17 437.305
COMPASS 1 20 Dec 12:16:13 12:19:23 21° 313° (NW) 12:22:32 437.405
SPROUT 20 Dec 12:16:32 12:20:12 27° 92° (E) 12:23:52 437.525
QB50P1 20 Dec 12:19:15 12:21:14 13° 279° (W) 12:23:14 145.935-145.965
FUNcube-1 20 Dec 12:19:44 12:23:59 45° 299° (WNW) 12:28:19 145.935
UWE-3 20 Dec 12:19:50 12:24:05 42° 300° (WNW) 12:28:24 435.000/436.395/437.385
SEEDS 20 Dec 12:21:33 12:24:29 18° 316° (NW) 12:27:25 437.485
CUTE 1.7 + AOD 2 20 Dec 12:24:45 12:27:31 17° 318° (NW) 12:30:16 437.475
DELFI C3 20 Dec 12:34:03 12:37:28 25° 308° (NW) 12:40:52 145.870
50 SAT 20 Dec 12:35:13 12:39:15 52° 296° (WNW) 12:43:18 437.505
DX 1 20 Dec 12:36:39 12:40:25 29° 308° (NW) 12:44:11 434.975-435.025
AISAT 20 Dec 12:36:48 12:41:08 52° 298° (WNW) 12:45:26 437.250
YUBILEINY 20 Dec 12:39:10 12:47:17 46° 275° (W) 12:55:23 435.215
GOMX 1 20 Dec 12:40:25 12:43:23 18° 317° (NW) 12:46:27 467.674
GONETS M04 20 Dec 12:40:52 12:47:21 22° 11° (NNE) 12:53:48
CUBEBUG 1 20 Dec 12:43:33 12:47:55 82° 291° (WNW) 12:52:16 437.445
MaSat-1 20 Dec 12:46:15 12:47:58 19° 341° (NNW) 12:49:42 437.345
SWISSCUBE 20 Dec 12:53:51 12:57:00 17° 84° (E) 13:00:07 437.505
ITUPSAT 1 20 Dec 12:54:19 12:57:18 16° 83° (E) 13:00:17 437.325
HUMSAT D 20 Dec 12:55:39 12:59:35 36° 302° (WNW) 13:03:32 437.325/437.525
CUSAT 1 20 Dec 12:57:33 13:01:39 25° 323° (NW) 13:06:46 437.405
Oscar 11 20 Dec 13:00:02 13:03:08 19° 315° (NW) 13:06:13 145.826/435.025
RS-15 20 Dec 13:05:21 13:15:39 51° 124° (SE) 13:26:07 29.354- 29.394
DOVE 4 20 Dec 13:07:02 13:09:41 16° 321° (NW) 13:12:24 437.250
UKube-1 20 Dec 13:08:16 13:11:31 21° 315° (NW) 13:14:46 .
Cubesat XI-IV 20 Dec 13:13:06 13:14:28 11° 8° (N) 13:15:51 437.490
Oscar 19 20 Dec 13:17:01 13:22:08 60° 257° (WSW) 13:27:18 437.125/150
AAUSAT CUBESAT 2 20 Dec 13:17:40 13:19:07 12° 326° (NW) 13:20:34 437.432
CUBEBUG 2 20 Dec 13:18:12 13:21:29 20° 315° (NW) 13:24:50 437.445
BEESAT 20 Dec 13:18:34 13:22:24 23° 89° (E) 13:26:12 436.000
PCSat 20 Dec 13:20:41 13:21:40 11° 102° (ESE) 13:22:38 145.827
Gurwin Techsat 1B 20 Dec 13:25:54 13:31:10 66° 64° (ENE) 13:36:28 435.225
HORYU 2 20 Dec 13:28:39 13:32:46 36° 56° (NE) 13:36:55 437.375
ZACube-1 20 Dec 13:29:44 13:32:58 20° 315° (NW) 13:36:13 437.345
VELOX 1 20 Dec 13:30:35 13:34:17 27° 310° (NW) 13:37:59 145.980
ESTCUBE 1 20 Dec 13:32:02 13:36:17 41° 302° (WNW) 13:40:30 437.505/2401.250
ITAMSAT 1 20 Dec 13:32:05 13:37:17 86° 250° (WSW) 13:42:31 435.822/435.867
CINEMA 3 20 Dec 13:34:01 13:36:31 15° 322° (NW) 13:39:04 145.822/145.860
CUTE-I 20 Dec 13:45:13 13:47:13 12° 16° (NNE) 13:49:13 437.470
JAS-2 20 Dec 13:46:37 13:52:08 26° 37° (NE) 13:57:12 435.910
BEESAT 3 20 Dec 13:47:36 13:49:45 14° 118° (ESE) 13:51:55 437.485
TISAT 1 20 Dec 13:49:45 13:53:58 68° 293° (WNW) 13:58:10 437.305
DANDE 20 Dec 13:49:57 13:53:28 18° 335° (NNW) 13:57:41 436.750
SPROUT 20 Dec 13:52:25 13:56:42 68° 293° (WNW) 14:00:59 437.525
FUNcube-1 20 Dec 13:56:55 13:59:29 15° 321° (NW) 14:02:05 145.935
UWE-3 20 Dec 13:57:17 13:59:42 15° 322° (NW) 14:02:10 435.000/436.395/437.385
AO-7 20 Dec 13:57:52 14:05:58 58° 48° (NE) 14:14:08 29.400- 29.500
HO-68 20 Dec 13:59:27 14:04:52 24° 341° (NNW) 14:10:17 435.675
50 SAT 20 Dec 14:11:16 14:13:44 16° 318° (NW) 14:16:13 437.505
AISAT 20 Dec 14:14:09 14:16:59 17° 320° (NW) 14:19:49 437.250
DX 1 20 Dec 14:14:11 14:15:32 11° 330° (NNW) 14:16:53 434.975-435.025
AUBIESAT-1 20 Dec 14:18:28 14:22:01 22° 95° (E) 14:25:21 437.475
CUBEBUG 1 20 Dec 14:20:27 14:23:49 22° 312° (NW) 14:27:11 437.445
MaSat-1 20 Dec 14:20:37 14:21:59 14° 4° (N) 14:23:22 437.345
STARS 20 Dec 14:22:14 14:25:06 17° 85° (E) 14:27:57 437.465
KKS-1 20 Dec 14:25:13 14:28:45 22° 89° (E) 14:32:16 437.445
BEESAT 2 20 Dec 14:25:54 14:29:08 22° 125° (SE) 14:32:25 435.950
SWISSCUBE 20 Dec 14:30:59 14:35:47 69° 106° (ESE) 14:40:32 437.505
ITUPSAT 1 20 Dec 14:31:22 14:36:10 65° 105° (ESE) 14:40:55 437.325
HUMSAT D 20 Dec 14:32:35 14:34:23 13° 324° (NW) 14:36:12 437.325/437.525
YUBILEINY 20 Dec 14:37:00 14:41:52 17° 301° (WNW) 14:46:43 435.215
GONETS M04 20 Dec 14:39:33 14:47:30 35° 43° (NE) 14:55:22
M-CUBED/EXP-1 PRIME 20 Dec 14:43:43 14:47:57 34° 102° (ESE) 14:51:53 437.505
CUSAT 1 20 Dec 14:43:58 14:47:15 15° 351° (N) 14:51:00 437.405
Cubesat XI-IV 20 Dec 14:49:19 14:52:47 18° 32° (NNE) 14:56:16 437.490
BEESAT 20 Dec 14:56:04 15:00:54 88° 290° (WNW) 15:05:42 436.000
PCSat 20 Dec 14:58:44 15:03:40 37° 124° (SE) 15:08:37 145.827
Oscar 19 20 Dec 14:59:27 15:02:36 16° 279° (W) 15:05:46 437.125/150
HORYU 2 20 Dec 15:04:55 15:09:21 56° 257° (WSW) 15:13:50 437.375
Gurwin Techsat 1B 20 Dec 15:06:40 15:11:32 36° 266° (W) 15:16:26 435.225
VELOX 1 20 Dec 15:08:43 15:09:38 11° 332° (NNW) 15:10:34 145.980
ESTCUBE 1 20 Dec 15:09:45 15:12:12 15° 324° (NW) 15:14:38 437.505/2401.250
ITAMSAT 1 20 Dec 15:13:24 15:17:32 24° 272° (W) 15:21:41 435.822/435.867
RS-15 20 Dec 15:16:21 15:27:19 89° 154° (SSE) 15:38:36 29.354- 29.394
CUTE-I 20 Dec 15:21:38 15:25:42 23° 40° (NE) 15:29:47 437.470
BEESAT 3 20 Dec 15:23:06 15:27:05 46° 139° (SE) 15:31:07 437.485
TISAT 1 20 Dec 15:26:13 15:29:13 19° 315° (NW) 15:32:13 437.305
SPROUT 20 Dec 15:29:07 15:32:12 19° 315° (NW) 15:35:16 437.525
JAS-2 20 Dec 15:29:11 15:36:17 58° 60° (ENE) 15:42:38 435.910
AIST 2 20 Dec 15:29:34 15:33:26 33° 132° (SE) 15:37:21 435.215
DANDE 20 Dec 15:36:38 15:39:43 14° 3° (N) 15:43:11 436.750
HO-68 20 Dec 15:45:32 15:50:34 21° 7° (N) 15:55:36 435.675
AO-7 20 Dec 15:50:34 15:58:51 64° 253° (WSW) 16:07:13 29.400- 29.500
AUBIESAT-1 20 Dec 15:52:58 15:57:39 88° 117° (ESE) 16:01:57 437.475
MaSat-1 20 Dec 15:53:54 15:55:54 27° 27° (NNE) 15:57:56 437.345
STARS 20 Dec 15:57:56 16:02:24 71° 106° (ESE) 16:06:50 437.465
KKS-1 20 Dec 16:01:29 16:05:59 86° 291° (WNW) 16:10:29 437.445
BEESAT 2 20 Dec 16:02:41 16:06:51 67° 147° (SSE) 16:11:03 435.950
SWISSCUBE 20 Dec 16:09:09 16:13:26 33° 307° (NW) 16:17:42 437.505
ITUPSAT 1 20 Dec 16:09:33 16:13:54 35° 307° (NW) 16:18:13 437.325
AIST 1 20 Dec 16:12:07 16:15:35 24° 86° (E) 16:19:03
M-CUBED/EXP-1 PRIME 20 Dec 16:18:37 16:23:17 62° 304° (NW) 16:27:34 437.505
Cubesat XI-IV 20 Dec 16:26:49 16:31:50 43° 55° (NE) 16:36:51 437.490
CUSAT 1 20 Dec 16:29:11 16:33:12 17° 19° (NNE) 16:37:46 437.405
BEESAT 20 Dec 16:34:20 16:38:19 27° 312° (NW) 16:42:16 436.000
GONETS M04 20 Dec 16:36:58 16:45:51 79° 71° (ENE) 16:54:37
ISS 20 Dec 16:40:32 16:41:56 12° 170° (S) 16:43:20 145.825
PCSat 20 Dec 16:41:18 16:46:45 87° 327° (NNW) 16:52:14 145.827
HORYU 2 20 Dec 16:44:49 16:47:03 13° 279° (W) 16:49:17 437.375
CUTE-I 20 Dec 16:59:47 17:05:02 63° 62° (ENE) 17:10:18 437.470
BEESAT 3 20 Dec 17:01:00 17:05:12 76° 342° (NNW) 17:09:25 437.485
AIST 2 20 Dec 17:07:27 17:11:47 88° 155° (SSE) 17:16:08 435.215
MOZHAYETS 4 20 Dec 17:10:14 17:14:30 34° 94° (E) 17:18:43
JAS-2 20 Dec 17:14:20 17:21:31 53° 261° (W) 17:27:58 435.910
DANDE 20 Dec 17:21:15 17:25:52 21° 30° (NNE) 17:31:17 436.750
MaSat-1 20 Dec 17:27:06 17:29:19 46° 228° (SW) 17:31:36 437.345
AUBIESAT-1 20 Dec 17:28:10 17:32:12 29° 320° (NW) 17:36:00 437.475
RS-15 20 Dec 17:29:14 17:40:16 80° 5° (N) 17:51:43 29.354- 29.394
HO-68 20 Dec 17:30:25 17:36:29 31° 33° (NNE) 17:42:32 435.675
GOMX 1 20 Dec 17:31:42 17:32:24 10° 29° (NNE) 17:33:06 467.674
STARS 20 Dec 17:34:46 17:38:37 30° 308° (NW) 17:42:29 437.465
KKS-1 20 Dec 17:38:36 17:42:11 24° 312° (NW) 17:45:46 437.445
BEESAT 2 20 Dec 17:41:02 17:45:14 66° 350° (N) 17:49:27 435.950
AO-7 20 Dec 17:47:05 17:53:27 23° 278° (W) 17:59:52 29.400- 29.500
SWISSCUBE 20 Dec 17:47:50 17:50:09 14° 330° (NNW) 17:52:27 437.505
ITUPSAT 1 20 Dec 17:48:14 17:50:40 14° 329° (NNW) 17:53:06 437.325
AIST 1 20 Dec 17:48:30 17:52:53 75° 288° (WNW) 17:57:15
M-CUBED/EXP-1 PRIME 20 Dec 17:53:56 17:57:37 23° 327° (NNW) 18:01:07 437.505
PRISM 20 Dec 17:55:22 17:58:18 18° 87° (E) 18:01:12 437.425
DOVE 4 20 Dec 17:56:00 17:57:34 12° 32° (NNE) 17:59:09 437.250
AAUSAT CUBESAT 2 20 Dec 17:58:59 18:00:43 12° 36° (NE) 18:02:27 437.432
Cubesat XI-IV 20 Dec 18:06:38 18:11:54 57° 257° (WSW) 18:17:10 437.490
CANX-2 20 Dec 18:11:07 18:14:00 18° 44° (NE) 18:16:54 2200.000
CUSAT 1 20 Dec 18:12:44 18:18:32 31° 44° (NE) 18:25:24 437.405
BEESAT 20 Dec 18:13:12 18:14:50 12° 335° (NNW) 18:16:27 436.000
ISS 20 Dec 18:16:06 18:17:32 12° 190° (S) 18:18:58 145.825
CINEMA 3 20 Dec 18:20:52 18:22:42 13° 34° (NNE) 18:24:33 145.822/145.860
PCSat 20 Dec 18:25:17 18:30:38 55° 352° (N) 18:36:00 145.827
COMPASS 1 20 Dec 18:32:40 18:35:37 19° 45° (NE) 18:38:36 437.405
CUBESAT XI-V 20 Dec 18:33:28 18:37:13 24° 89° (E) 18:40:57 437.345
GONETS M04 20 Dec 18:34:10 18:42:11 42° 277° (W) 18:50:08
SEEDS 20 Dec 18:37:53 18:41:08 21° 48° (NE) 18:44:24 437.485
BEESAT 3 20 Dec 18:39:32 18:43:43 62° 5° (N) 18:47:53 437.485
BRITE-PL 20 Dec 18:39:46 18:43:07 24° 50° (NE) 18:46:32 437.365/2234.400
CUTE-I 20 Dec 18:40:31 18:45:27 37° 265° (W) 18:50:24 437.470
CUTE 1.7 + AOD 2 20 Dec 18:41:08 18:44:34 24° 50° (NE) 18:48:03 437.475
FUNcube-1 20 Dec 18:41:56 18:43:08 11° 31° (NNE) 18:44:21 145.935
UWE-3 20 Dec 18:42:16 18:43:55 12° 33° (NNE) 18:45:34 435.000/436.395/437.385
STRAND 1 20 Dec 18:44:16 18:48:31 26° 89° (E) 18:52:43 437.568
AIST 2 20 Dec 18:46:21 18:50:40 63° 358° (N) 18:54:59 435.215
MOZHAYETS 4 20 Dec 18:47:25 18:52:01 58° 296° (WNW) 18:56:34
DELFI C3 20 Dec 18:49:49 18:52:00 14° 40° (NE) 18:54:11 145.870
DX 1 20 Dec 18:56:19 18:59:06 17° 40° (NE) 19:01:54 434.975-435.025
AISAT 20 Dec 19:00:04 19:01:38 12° 30° (NNE) 19:03:12 437.250
AUBIESAT-1 20 Dec 19:03:21 19:06:00 15° 342° (NNW) 19:08:34 437.475
JAS-2 20 Dec 19:03:28 19:08:02 18° 283° (WNW) 19:12:22 435.910
DANDE 20 Dec 19:04:52 19:11:06 42° 54° (NE) 19:18:44 436.750
GOMX 1 20 Dec 19:05:44 19:09:19 28° 53° (NE) 19:13:01 467.674
STARS 20 Dec 19:12:29 19:13:57 12° 330° (NNW) 19:15:26 437.465
HUMSAT D 20 Dec 19:14:50 19:16:25 12° 34° (NE) 19:17:59 437.325/437.525
HO-68 20 Dec 19:16:11 19:23:16 66° 57° (ENE) 19:30:23 435.675
Oscar 11 20 Dec 19:17:49 19:21:12 23° 48° (NE) 19:24:36 145.826/435.025
BEESAT 2 20 Dec 19:19:37 19:23:50 69° 13° (NNE) 19:28:03 435.950
UKube-1 20 Dec 19:26:24 19:29:49 23° 47° (NE) 19:33:14 .
AIST 1 20 Dec 19:28:05 19:31:19 20° 310° (NW) 19:34:32
M-CUBED/EXP-1 PRIME 20 Dec 19:28:59 19:31:19 14° 349° (N) 19:33:35 437.505
PRISM 20 Dec 19:30:16 19:34:30 84° 109° (ESE) 19:38:40 437.425
DOVE 4 20 Dec 19:30:28 19:34:14 33° 56° (NE) 19:38:09 437.250
AAUSAT CUBESAT 2 20 Dec 19:31:30 19:35:23 36° 58° (ENE) 19:39:17 437.432
CUBEBUG 2 20 Dec 19:38:16 19:41:38 23° 48° (NE) 19:45:04 437.445
RS-15 20 Dec 19:41:57 19:52:59 78° 216° (SW) 20:04:28 29.354- 29.394
CANX-2 20 Dec 19:45:01 19:49:15 60° 66° (ENE) 19:53:32 2200.000
ZACube-1 20 Dec 19:48:31 19:51:48 22° 48° (NE) 19:55:10 437.345
Cubesat XI-IV 20 Dec 19:50:01 19:53:11 16° 280° (W) 19:56:22 437.490
VELOX 1 20 Dec 19:51:07 19:54:12 19° 43° (NE) 19:57:18 145.980
CINEMA 3 20 Dec 19:54:57 19:58:49 35° 56° (ENE) 20:02:51 145.822/145.860
ESTCUBE 1 20 Dec 19:55:09 19:57:29 14° 35° (NE) 19:59:48 437.505/2401.250
CUSAT 1 20 Dec 19:55:53 20:02:43 70° 66° (ENE) 20:10:59 437.405
COMPASS 1 20 Dec 20:06:30 20:10:43 65° 67° (ENE) 20:14:58 437.405
PCSat 20 Dec 20:09:20 20:14:44 61° 17° (NNE) 20:20:08 145.827
CUBESAT XI-V 20 Dec 20:10:36 20:15:15 82° 290° (WNW) 20:19:52 437.345
SEEDS 20 Dec 20:12:10 20:16:27 79° 69° (ENE) 20:20:47 437.485
FUNcube-1 20 Dec 20:14:37 20:18:19 30° 54° (NE) 20:22:07 145.935
UWE-3 20 Dec 20:15:31 20:19:21 33° 55° (NE) 20:23:17 435.000/436.395/437.385
CUTE 1.7 + AOD 2 20 Dec 20:15:46 20:20:05 90° 252° (WSW) 20:24:27 437.475
BRITE-PL 20 Dec 20:17:08 20:21:17 84° 253° (WSW) 20:25:33 437.365/2234.400
BEESAT 3 20 Dec 20:17:53 20:22:07 82° 208° (SSW) 20:26:19 437.485
DELFI C3 20 Dec 20:22:29 20:26:26 45° 62° (ENE) 20:30:25 145.870
STRAND 1 20 Dec 20:23:13 20:28:21 86° 291° (WNW) 20:33:28 437.568
50 SAT 20 Dec 20:24:56 20:28:05 22° 50° (NE) 20:31:17 437.505
AIST 2 20 Dec 20:25:15 20:29:36 82° 21° (NNE) 20:33:56 435.215
MOZHAYETS 4 20 Dec 20:25:16 20:28:30 19° 318° (NW) 20:31:42
DX 1 20 Dec 20:30:22 20:34:36 53° 62° (ENE) 20:38:51 434.975-435.025
GONETS M04 20 Dec 20:32:13 20:36:33 15° 304° (NW) 20:40:51
AISAT 20 Dec 20:33:15 20:37:08 31° 53° (NE) 20:41:01 437.250
AUBIESAT-1 20 Dec 20:37:24 20:39:27 13° 5° (N) 20:41:28 437.475
CUBEBUG 1 20 Dec 20:39:39 20:42:49 20° 45° (NE) 20:45:59 437.445
GOMX 1 20 Dec 20:43:04 20:47:13 69° 255° (WSW) 20:51:32 467.674
HUMSAT D 20 Dec 20:47:23 20:51:10 34° 57° (ENE) 20:55:01 437.325/437.525
DANDE 20 Dec 20:48:22 20:55:10 81° 255° (WSW) 21:03:32 436.750
Oscar 11 20 Dec 20:52:31 20:56:53 82° 70° (ENE) 21:01:18 145.826/435.025
BEESAT 2 20 Dec 20:57:59 21:02:09 59° 216° (SW) 21:06:17 435.950
UKube-1 20 Dec 21:01:10 21:05:31 83° 69° (ENE) 21:09:53 .
M-CUBED/EXP-1 PRIME 20 Dec 21:02:24 21:04:47 14° 11° (NNE) 21:07:07 437.505
HO-68 20 Dec 21:04:26 21:11:21 48° 261° (W) 21:18:18 435.675
PRISM 20 Dec 21:06:15 21:09:41 25° 310° (NW) 21:13:04 437.425
AAUSAT CUBESAT 2 20 Dec 21:06:50 21:10:59 52° 259° (W) 21:15:10 437.432
DOVE 4 20 Dec 21:07:47 21:11:54 56° 258° (WSW) 21:16:12 437.250
CUBEBUG 2 20 Dec 21:13:35 21:17:50 84° 70° (ENE) 21:22:17 437.445
CANX-2 20 Dec 21:21:42 21:25:31 30° 267° (W) 21:29:22 2200.000
ZACube-1 20 Dec 21:23:25 21:27:40 80° 70° (ENE) 21:32:04 437.345
BEESAT 20 Dec 21:25:22 21:26:45 11° 23° (NNE) 21:28:08 436.000
VELOX 1 20 Dec 21:25:46 21:30:08 62° 65° (ENE) 21:34:31 145.980
ESTCUBE 1 20 Dec 21:29:09 21:33:21 38° 57° (ENE) 21:37:34 437.505/2401.250
CINEMA 3 20 Dec 21:31:48 21:35:57 54° 259° (W) 21:40:18 145.822/145.860
CUSAT 1 20 Dec 21:39:09 21:45:46 47° 266° (W) 21:53:33 437.405
UNISAT 6 20 Dec 21:39:18 21:40:55 12° 77° (ENE) 21:42:31 437.425
TISAT 1 20 Dec 21:42:54 21:46:03 21° 47° (NE) 21:49:13 437.305
COMPASS 1 20 Dec 21:43:09 21:46:49 27° 268° (W) 21:50:31 437.405
SPROUT 20 Dec 21:46:46 21:50:00 21° 47° (NE) 21:53:14 437.525
CUBESAT XI-V 20 Dec 21:48:31 21:52:12 24° 312° (NW) 21:55:52 437.345
SEEDS 20 Dec 21:49:23 21:52:48 23° 271° (W) 21:56:16 437.485
FUNcube-1 20 Dec 21:50:12 21:54:26 68° 256° (WSW) 21:58:48 145.935
UWE-3 20 Dec 21:51:33 21:55:45 59° 258° (WSW) 22:00:06 435.000/436.395/437.385
PCSat 20 Dec 21:52:58 21:58:24 72° 221° (SW) 22:03:49 145.827
CUTE 1.7 + AOD 2 20 Dec 21:53:27 21:56:39 20° 273° (W) 21:59:53 437.475
RS-15 20 Dec 21:54:12 22:04:06 40° 244° (WSW) 22:14:23 29.354- 29.394
BEESAT 3 20 Dec 21:56:18 21:59:56 29° 230° (SW) 22:03:33 437.485
BRITE-PL 20 Dec 21:57:47 22:00:36 17° 275° (W) 22:03:27 437.365/2234.400
DELFI C3 20 Dec 21:57:56 22:01:49 38° 263° (W) 22:05:45 145.870
50 SAT 20 Dec 21:58:49 22:02:53 88° 71° (ENE) 22:07:01 437.505
POLYITAN 1 20 Dec 22:00:29 22:01:09 10° 78° (ENE) 22:01:49 437.675
NANOSAT C BR1 20 Dec 22:02:25 22:03:13 10° 78° (ENE) 22:04:01 145.865
STRAND 1 20 Dec 22:02:48 22:07:05 28° 314° (NW) 22:11:21 437.568
AIST 2 20 Dec 22:04:00 22:08:05 41° 224° (SW) 22:12:08 435.215
YUBILEINY 20 Dec 22:04:43 22:10:13 19° 62° (ENE) 22:15:41 435.215
DX 1 20 Dec 22:07:05 22:11:05 35° 263° (W) 22:15:05 434.975-435.025
AISAT 20 Dec 22:09:07 22:13:32 69° 254° (WSW) 22:17:58 437.250
AUBIESAT-1 20 Dec 22:09:42 22:12:59 19° 27° (NNE) 22:16:13 437.475
ANTELSAT 20 Dec 22:10:08 22:13:27 19° 85° (E) 22:16:45 437.575/2403.000
CUBEBUG 1 20 Dec 22:14:16 22:18:36 69° 67° (ENE) 22:22:57 437.445
SO-50 20 Dec 22:15:35 22:19:34 29° 128° (SE) 22:23:40 436.795
QB50P1 20 Dec 22:15:50 22:17:56 13° 82° (E) 22:20:02 145.935-145.965
HUMSAT D 20 Dec 22:22:46 22:26:53 55° 258° (WSW) 22:31:04 437.325/437.525
GOMX 1 20 Dec 22:23:54 22:26:17 15° 278° (W) 22:28:43 467.674
Oscar 11 20 Dec 22:30:09 22:33:37 23° 271° (W) 22:37:06 145.826/435.025
DANDE 20 Dec 22:32:15 22:38:07 31° 275° (W) 22:44:59 436.750
M-CUBED/EXP-1 PRIME 20 Dec 22:34:42 22:38:30 23° 33° (NNE) 22:42:13 437.505
SWISSCUBE 20 Dec 22:34:59 22:38:28 20° 41° (NE) 22:41:57 437.505
ITUPSAT 1 20 Dec 22:35:39 22:39:04 20° 40° (NE) 22:42:29 437.325
BEESAT 2 20 Dec 22:36:47 22:39:45 19° 238° (WSW) 22:42:42 435.950
UKube-1 20 Dec 22:38:49 22:42:14 22° 270° (W) 22:45:40 .
POPSAT HIP 1 20 Dec 22:43:52 22:47:06 21° 88° (E) 22:50:20 437.405
TIGRISAT 20 Dec 22:45:09 22:49:17 30° 93° (E) 22:53:26 435.000
AAUSAT CUBESAT 2 20 Dec 22:46:07 22:47:41 12° 281° (W) 22:49:15 437.432
DOVE 4 20 Dec 22:48:59 22:50:46 12° 281° (W) 22:52:35 437.250
CUBEBUG 2 20 Dec 22:51:51 22:55:10 22° 273° (W) 22:58:35 437.445
HO-68 20 Dec 22:56:54 23:01:01 16° 285° (WNW) 23:05:08 435.675
BEESAT 20 Dec 22:59:21 23:03:13 25° 46° (NE) 23:07:06 436.000
ZACube-1 20 Dec 23:01:14 23:04:37 23° 272° (W) 23:08:04 437.345
VELOX 1 20 Dec 23:03:08 23:07:03 30° 266° (W) 23:11:00 145.980
ESTCUBE 1 20 Dec 23:05:44 23:10:11 53° 259° (WSW) 23:14:39 437.505/2401.250
BUGSAT 1 20 Dec 23:09:29 23:12:53 25° 92° (E) 23:16:17 437.445
DUCHIFAT 1 20 Dec 23:11:29 23:15:18 31° 95° (E) 23:19:07 145.980
CINEMA 3 20 Dec 23:12:34 23:14:17 12° 282° (WNW) 23:16:02 145.822/145.860
UNISAT 6 20 Dec 23:14:21 23:18:53 46° 99° (E) 23:23:26 437.425
TISAT 1 20 Dec 23:17:10 23:21:23 78° 69° (ENE) 23:25:37 437.305
SPROUT 20 Dec 23:21:17 23:25:34 78° 69° (ENE) 23:29:53 437.525
CUSAT 1 20 Dec 23:23:20 23:27:35 17° 287° (WNW) 23:32:12 437.405
QB50P2 20 Dec 23:25:10 23:29:13 39° 98° (E) 23:33:15 145.880/145.840
CUBESAT XI-V 20 Dec 23:28:14 23:28:16 10° 335° (NNW) 23:28:17 437.345
FUNcube-1 20 Dec 23:29:10 23:31:41 15° 278° (W) 23:34:15 145.935
UWE-3 20 Dec 23:31:11 23:33:18 13° 280° (W) 23:35:28 435.000/436.395/437.385
POLYITAN 1 20 Dec 23:34:05 23:38:13 45° 100° (E) 23:42:22 437.675
50 SAT 20 Dec 23:35:45 23:38:43 19° 273° (W) 23:41:43 437.505
NANOSAT C BR1 20 Dec 23:36:04 23:40:12 46° 100° (E) 23:44:19 145.865
PCSat 20 Dec 23:36:47 23:41:09 25° 244° (WSW) 23:45:29 145.827
AUBIESAT-1 20 Dec 23:42:27 23:47:02 41° 48° (NE) 23:51:31 437.475
STRAND 1 20 Dec 23:42:41 23:44:54 13° 337° (NNW) 23:47:07 437.568
AIST 2 20 Dec 23:43:59 23:45:45 12° 245° (WSW) 23:47:30 435.215
ANTELSAT 20 Dec 23:46:19 23:51:02 75° 106° (ESE) 23:55:46 437.575/2403.000
AISAT 20 Dec 23:48:17 23:51:01 16° 276° (W) 23:53:45 437.250
QB50P1 20 Dec 23:50:31 23:54:45 59° 103° (ESE) 23:58:58 145.935-145.965
CUBEBUG 1 20 Dec 23:51:42 23:55:24 27° 268° (W) 23:59:07 437.445
SO-50 20 Dec 23:54:58 23:59:39 77° 151° (SSE) 00:04:29 436.795
STARS 20 Dec 23:55:20 23:58:09 17° 40° (NE) 00:00:59 437.465
YUBILEINY 20 Dec 23:56:42 00:05:01 52° 88° (E) 00:13:20 435.215
KKS-1 20 Dec 23:58:58 00:02:18 21° 45° (NE) 00:05:38 437.445
HUMSAT D 21 Dec 00:01:58 00:03:41 12° 280° (W) 00:05:25 437.325/437.525
M-CUBED/EXP-1 PRIME 21 Dec 00:07:59 00:12:49 58° 54° (NE) 00:17:34 437.505
RS-15 21 Dec 00:08:27 00:12:58 13° 272° (W) 00:17:34 29.354- 29.394
SWISSCUBE 21 Dec 00:10:53 00:15:37 61° 63° (ENE) 00:20:21 437.505
ITUPSAT 1 21 Dec 00:11:29 00:16:13 58° 63° (ENE) 00:20:57 437.325
POPSAT HIP 1 21 Dec 00:19:19 00:23:36 87° 290° (WNW) 00:27:53 437.405
TIGRISAT 21 Dec 00:21:47 00:26:25 68° 294° (WNW) 00:31:06 435.000
BEESAT 21 Dec 00:35:45 00:40:34 81° 68° (ENE) 00:45:24 436.000
BUGSAT 1 21 Dec 00:44:45 00:48:47 66° 293° (WNW) 00:52:49 437.445
ESTCUBE 1 21 Dec 00:46:07 00:48:08 13° 280° (W) 00:50:09 437.505/2401.250
DUCHIFAT 1 21 Dec 00:47:16 00:51:27 57° 296° (WNW) 00:55:37 145.980
UNISAT 6 21 Dec 00:51:17 00:55:44 45° 300° (WNW) 01:00:13 437.425
TISAT 1 21 Dec 00:54:21 00:57:43 23° 270° (W) 01:01:06 437.305
SPROUT 21 Dec 00:58:43 01:02:11 23° 270° (W) 01:05:39 437.525
QB50P2 21 Dec 01:01:10 01:05:15 46° 299° (WNW) 01:09:21 145.880/145.840
O/OREOS (USA 219) 21 Dec 01:09:18 01:13:00 26° 110° (ESE) 01:16:44 437.305
POLYITAN 1 21 Dec 01:10:11 01:14:12 40° 301° (WNW) 01:18:13 437.675
NANOSAT C BR1 21 Dec 01:12:07 01:16:05 39° 301° (WNW) 01:20:04 145.865
MOZHAYETS 4 21 Dec 01:13:13 01:14:45 12° 29° (NNE) 01:16:17
AUBIESAT-1 21 Dec 01:16:59 01:21:52 63° 249° (WSW) 01:26:40 437.475
Oscar 19 21 Dec 01:17:28 01:21:43 25° 88° (E) 01:25:58 437.125/150
ANTELSAT 21 Dec 01:23:28 01:27:33 31° 307° (NW) 01:31:40 437.575/2403.000
QB50P1 21 Dec 01:26:42 01:30:30 32° 304° (NW) 01:34:19 145.935-145.965
STARS 21 Dec 01:29:36 01:33:52 53° 62° (ENE) 01:38:11 437.465
Gurwin Techsat 1B 21 Dec 01:32:20 01:34:26 12° 75° (ENE) 01:36:30 435.225
KKS-1 21 Dec 01:33:56 01:38:22 72° 67° (ENE) 01:42:50 437.445
ITAMSAT 1 21 Dec 01:34:30 01:37:44 16° 82° (E) 01:40:58 435.822/435.867
SO-50 21 Dec 01:35:39 01:40:24 69° 355° (N) 01:45:16 436.795
M-CUBED/EXP-1 PRIME 21 Dec 01:43:19 01:47:59 41° 255° (WSW) 01:52:37 437.505
SWISSCUBE 21 Dec 01:49:25 01:53:48 34° 265° (W) 01:58:12 437.505
ITUPSAT 1 21 Dec 01:49:56 01:54:23 36° 264° (W) 01:58:51 437.325
YUBILEINY 21 Dec 01:53:07 02:01:47 65° 295° (WNW) 02:10:29 435.215
POPSAT HIP 1 21 Dec 01:55:43 01:59:04 23° 311° (NW) 02:02:26 437.405
TIGRISAT 21 Dec 01:59:05 02:02:33 21° 315° (NW) 02:06:03 435.000
AIST 1 21 Dec 02:06:59 02:10:35 25° 54° (NE) 02:14:09
BEESAT 21 Dec 02:14:59 02:18:59 26° 270° (W) 02:22:59 436.000
BUGSAT 1 21 Dec 02:20:57 02:23:42 18° 315° (NW) 02:26:27 437.445
DUCHIFAT 1 21 Dec 02:23:52 02:26:37 17° 317° (NW) 02:29:22 145.980
UNISAT 6 21 Dec 02:28:49 02:31:37 16° 322° (NW) 02:34:26 437.425
QB50P2 21 Dec 02:37:57 02:40:20 15° 321° (NW) 02:42:44 145.880/145.840
HORYU 2 21 Dec 02:46:10 02:48:59 16° 84° (E) 02:51:48 437.375
MOZHAYETS 4 21 Dec 02:46:45 02:50:43 29° 51° (NE) 02:54:43
POLYITAN 1 21 Dec 02:47:06 02:49:14 14° 323° (NW) 02:51:22 437.675
O/OREOS (USA 219) 21 Dec 02:47:32 02:52:01 83° 312° (NW) 02:56:32 437.305
NANOSAT C BR1 21 Dec 02:49:00 02:51:03 13° 323° (NW) 02:53:05 145.865
AUBIESAT-1 21 Dec 02:54:30 02:57:40 17° 269° (W) 03:00:50 437.475
Oscar 19 21 Dec 02:56:31 03:01:46 90° 110° (ESE) 03:07:00 437.125/150
STRAND 1 21 Dec 02:57:00 02:59:29 14° 26° (NNE) 03:01:58 437.568
ANTELSAT 21 Dec 03:01:20 03:03:10 12° 330° (NNW) 03:05:00 437.575/2403.000
QB50P1 21 Dec 03:03:53 03:05:21 12° 327° (NNW) 03:06:49 145.935-145.965
STARS 21 Dec 03:06:31 03:10:34 36° 264° (W) 03:14:40 437.465
Gurwin Techsat 1B 21 Dec 03:10:43 03:15:50 45° 98° (E) 03:20:55 435.225
KKS-1 21 Dec 03:11:42 03:15:28 26° 268° (W) 03:19:15 437.445
ITAMSAT 1 21 Dec 03:13:10 03:18:20 61° 104° (ESE) 03:23:27 435.822/435.867
SO-50 21 Dec 03:16:27 03:21:17 81° 18° (NNE) 03:26:12 436.795
PRISM 21 Dec 03:22:43 03:25:28 17° 42° (NE) 03:28:12 437.425
M-CUBED/EXP-1 PRIME 21 Dec 03:22:53 03:24:12 11° 276° (W) 03:25:32 437.505
AO-7 21 Dec 03:39:25 03:46:16 27° 85° (E) 03:53:05 29.400- 29.500
AIST 1 21 Dec 03:44:27 03:48:47 79° 257° (WSW) 03:53:04
YUBILEINY 21 Dec 03:53:05 04:00:33 30° 324° (NW) 04:08:01 435.215
GONETS M04 21 Dec 03:58:51 04:04:57 22° 65° (ENE) 04:11:02
CUBESAT XI-V 21 Dec 04:11:43 04:15:16 22° 46° (NE) 04:18:50 437.345
JAS-2 21 Dec 04:12:46 04:16:34 17° 76° (ENE) 04:20:08 435.910
HORYU 2 21 Dec 04:22:00 04:26:32 67° 105° (ESE) 04:31:03 437.375
MOZHAYETS 4 21 Dec 04:22:56 04:27:37 80° 253° (WSW) 04:32:19
O/OREOS (USA 219) 21 Dec 04:27:55 04:31:59 33° 336° (NNW) 04:36:05 437.305
STRAND 1 21 Dec 04:32:57 04:37:23 31° 49° (NE) 04:41:49 437.568
Oscar 19 21 Dec 04:36:14 04:40:41 29° 312° (NW) 04:45:08 437.125/150
Gurwin Techsat 1B 21 Dec 04:50:48 04:55:59 53° 300° (WNW) 05:01:08 435.225
ITAMSAT 1 21 Dec 04:52:55 04:57:44 40° 306° (NW) 05:02:31 435.822/435.867
PRISM 21 Dec 04:56:09 05:00:18 56° 64° (ENE) 05:04:27 437.425
SO-50 21 Dec 04:57:05 05:01:45 49° 221° (SW) 05:06:28 436.795
CUTE-I 21 Dec 05:07:34 05:09:05 11° 74° (ENE) 05:10:36 437.470
AIST 1 21 Dec 05:23:03 05:25:48 17° 279° (W) 05:28:33
AO-7 21 Dec 05:32:13 05:40:38 71° 110° (ESE) 05:49:00 29.400- 29.500
CUBESAT XI-V 21 Dec 05:47:29 05:52:09 74° 68° (ENE) 05:56:48 437.345
GONETS M04 21 Dec 05:51:24 05:59:58 58° 91° (E) 06:08:32
YUBILEINY 21 Dec 05:54:45 06:00:57 21° 356° (N) 06:07:08 435.215
JAS-2 21 Dec 05:57:09 06:03:11 61° 102° (ESE) 06:08:34 435.910
HORYU 2 21 Dec 05:58:59 06:03:00 32° 307° (NW) 06:07:01 437.375
MOZHAYETS 4 21 Dec 06:02:13 06:05:36 20° 275° (W) 06:09:01
O/OREOS (USA 219) 21 Dec 06:08:51 06:12:34 25° 1° (N) 06:16:18 437.305
STRAND 1 21 Dec 06:11:05 06:16:13 84° 251° (WSW) 06:21:22 437.568
Cubesat XI-IV 21 Dec 06:12:39 06:17:12 28° 90° (E) 06:21:43 437.490
Oscar 19 21 Dec 06:16:12 06:18:40 14° 336° (NNW) 06:21:08 437.125/150
Gurwin Techsat 1B 21 Dec 06:31:15 06:35:03 20° 323° (NW) 06:38:51 435.225
PRISM 21 Dec 06:32:17 06:36:06 32° 265° (W) 06:39:55 437.425
ITAMSAT 1 21 Dec 06:32:58 06:36:08 17° 329° (NNW) 06:39:17 435.822/435.867
SO-50 21 Dec 06:38:25 06:41:25 16° 242° (WSW) 06:44:26 436.795
CUTE-I 21 Dec 06:45:37 06:50:41 42° 97° (E) 06:55:43 437.470
TIGRISAT 21 Dec 06:46:52 06:47:31 10° 25° (NNE) 06:48:10 435.000
UNISAT 6 21 Dec 07:14:28 07:16:35 13° 33° (NNE) 07:18:43 437.425
QB50P2 21 Dec 07:21:56 07:22:48 11° 31° (NNE) 07:23:41 145.880/145.840
AO-7 21 Dec 07:25:17 07:33:20 54° 315° (NW) 07:41:22 29.400- 29.500
CUBESAT XI-V 21 Dec 07:26:06 07:30:04 27° 269° (W) 07:34:03 437.345
POLYITAN 1 21 Dec 07:30:20 07:31:45 12° 33° (NNE) 07:33:11 437.675
NANOSAT C BR1 21 Dec 07:31:57 07:33:22 12° 33° (NNE) 07:34:48 145.865
HORYU 2 21 Dec 07:36:40 07:38:33 13° 329° (NNW) 07:40:26 437.375
JAS-2 21 Dec 07:42:26 07:48:13 43° 307° (NW) 07:53:24 435.910
ANTELSAT 21 Dec 07:45:11 07:48:10 18° 40° (NE) 07:51:12 437.575/2403.000
QB50P1 21 Dec 07:45:42 07:47:43 13° 37° (NE) 07:49:44 145.935-145.965
GONETS M04 21 Dec 07:48:15 07:56:59 60° 298° (WNW) 08:05:43
O/OREOS (USA 219) 21 Dec 07:49:00 07:53:08 34° 26° (NNE) 07:57:17 437.305
STRAND 1 21 Dec 07:52:13 07:56:11 22° 273° (W) 08:00:11 437.568
Cubesat XI-IV 21 Dec 07:52:34 07:57:56 83° 292° (WNW) 08:03:16 437.490
YUBILEINY 21 Dec 07:54:32 08:01:35 26° 29° (NNE) 08:08:36 435.215
BRITE-PL 21 Dec 08:10:42 08:13:28 16° 83° (E) 08:16:20 437.365/2234.400
Gurwin Techsat 1B 21 Dec 08:11:46 08:13:20 11° 347° (NNW) 08:14:53 435.225
ITAMSAT 1 21 Dec 08:13:13 08:13:50 10° 353° (N) 08:14:27 435.822/435.867
POPSAT HIP 1 21 Dec 08:13:22 08:16:11 18° 43° (NE) 08:19:01 437.405
TIGRISAT 21 Dec 08:19:18 08:22:55 25° 48° (NE) 08:26:37 435.000
HO-68 21 Dec 08:19:34 08:25:12 24° 84° (E) 08:30:48 435.675
CUTE-I 21 Dec 08:25:47 08:31:00 57° 299° (WNW) 08:36:12 437.470
GOMX 1 21 Dec 08:33:34 08:36:46 18° 85° (E) 08:40:06 467.674
DANDE 21 Dec 08:35:16 08:37:31 13° 69° (ENE) 08:40:03 436.750
BUGSAT 1 21 Dec 08:36:19 08:39:16 20° 47° (NE) 08:42:12 437.445
AAUSAT CUBESAT 2 21 Dec 08:40:13 08:42:47 15° 83° (E) 08:45:21 437.432
DUCHIFAT 1 21 Dec 08:40:13 08:43:35 24° 50° (NE) 08:46:58 145.980
UNISAT 6 21 Dec 08:48:12 08:52:16 35° 55° (NE) 08:56:26 437.425
QB50P2 21 Dec 08:53:57 08:57:35 29° 53° (NE) 09:01:15 145.880/145.840
DOVE 4 21 Dec 08:55:32 08:59:03 21° 87° (E) 09:02:42 437.250
CANX-2 21 Dec 08:55:44 08:59:29 28° 92° (E) 09:03:13 2200.000
CUBEBUG 2 21 Dec 08:55:46 08:56:50 11° 77° (ENE) 08:57:55 437.445
POLYITAN 1 21 Dec 09:02:52 09:06:38 32° 55° (NE) 09:10:26 437.675
NANOSAT C BR1 21 Dec 09:04:26 09:08:12 32° 55° (NE) 09:11:59 145.865
COMPASS 1 21 Dec 09:15:28 09:19:13 29° 92° (E) 09:22:57 437.405
CINEMA 3 21 Dec 09:15:38 09:19:06 20° 86° (E) 09:22:40 145.822/145.860
AO-7 21 Dec 09:17:44 09:24:46 32° 341° (NNW) 09:31:47 29.400- 29.500
QB50P1 21 Dec 09:18:45 09:22:41 39° 59° (ENE) 09:26:39 145.935-145.965
ANTELSAT 21 Dec 09:19:48 09:24:10 53° 63° (ENE) 09:28:39 437.575/2403.000
CUSAT 1 21 Dec 09:20:21 09:24:18 29° 84° (E) 09:29:21 437.405
SEEDS 21 Dec 09:21:57 09:25:57 35° 95° (E) 09:29:54 437.485
CUTE 1.7 + AOD 2 21 Dec 09:26:20 09:30:28 42° 98° (E) 09:34:35 437.475
JAS-2 21 Dec 09:27:42 09:31:59 20° 333° (NNW) 09:35:58 435.910
DELFI C3 21 Dec 09:27:54 09:30:49 18° 86° (E) 09:33:43 145.870
O/OREOS (USA 219) 21 Dec 09:28:31 09:33:03 89° 50° (NE) 09:37:36 437.305
FUNcube-1 21 Dec 09:28:45 09:31:12 14° 81° (E) 09:33:39 145.935
Oscar 19 21 Dec 09:31:03 09:33:30 14° 24° (NNE) 09:35:59 437.125/150
UWE-3 21 Dec 09:31:04 09:34:02 17° 84° (E) 09:37:01 435.000/436.395/437.385
Cubesat XI-IV 21 Dec 09:33:03 09:37:31 28° 315° (NW) 09:41:59 437.490
DX 1 21 Dec 09:44:24 09:47:48 22° 90° (E) 09:51:11 434.975-435.025
POPSAT HIP 1 21 Dec 09:47:16 09:51:25 60° 65° (ENE) 09:55:37 437.405
BRITE-PL 21 Dec 09:48:21 09:52:50 65° 104° (ESE) 09:57:40 437.365/2234.400
GONETS M04 21 Dec 09:48:33 09:55:59 29° 327° (NNW) 10:03:24
ITAMSAT 1 21 Dec 09:49:32 09:51:22 12° 18° (NNE) 09:53:12 435.822/435.867
Gurwin Techsat 1B 21 Dec 09:49:50 09:51:17 11° 12° (NNE) 09:52:44 435.225
AISAT 21 Dec 09:50:35 09:52:36 13° 81° (E) 09:54:36 437.250
YUBILEINY 21 Dec 09:52:19 10:00:49 52° 58° (ENE) 10:09:16 435.215
TIGRISAT 21 Dec 09:54:45 09:59:12 87° 69° (ENE) 10:03:49 435.000
HUMSAT D 21 Dec 09:57:11 09:59:42 15° 83° (E) 10:02:14 437.325/437.525
MaSat-1 21 Dec 10:00:09 10:02:03 24° 126° (SE) 10:03:56 437.345
Oscar 11 21 Dec 10:05:16 10:09:22 37° 96° (E) 10:13:27 145.826/435.025
CUTE-I 21 Dec 10:06:19 10:10:15 21° 322° (NW) 10:14:10 437.470
HO-68 21 Dec 10:07:04 10:14:16 70° 108° (ESE) 10:21:24 435.675
BUGSAT 1 21 Dec 10:10:11 10:14:15 75° 68° (ENE) 10:18:19 437.445
GOMX 1 21 Dec 10:11:05 10:15:39 74° 106° (ESE) 10:20:33 467.674
UKube-1 21 Dec 10:14:24 10:18:22 33° 96° (E) 10:22:19 .
DUCHIFAT 1 21 Dec 10:14:50 10:19:03 88° 251° (WSW) 10:23:19 145.980
AAUSAT CUBESAT 2 21 Dec 10:14:59 10:19:16 69° 105° (ESE) 10:23:31 437.432
DANDE 21 Dec 10:15:08 10:19:21 53° 97° (E) 10:25:05 436.750
UNISAT 6 21 Dec 10:24:31 10:28:55 60° 257° (WSW) 10:33:29 437.425
RS-15 21 Dec 10:25:26 10:30:54 15° 91° (E) 10:36:24 29.354- 29.394
QB50P2 21 Dec 10:29:02 10:33:15 70° 255° (WSW) 10:37:31 145.880/145.840
CUBEBUG 2 21 Dec 10:30:20 10:34:43 44° 98° (E) 10:39:12 437.445
CANX-2 21 Dec 10:31:29 10:35:49 66° 293° (WNW) 10:40:07 2200.000
DOVE 4 21 Dec 10:32:51 10:37:28 84° 107° (ESE) 10:42:23 437.250
ZACube-1 21 Dec 10:37:33 10:41:48 40° 97° (E) 10:46:06 437.345
POLYITAN 1 21 Dec 10:38:15 10:42:26 60° 257° (WSW) 10:46:40 437.675
NANOSAT C BR1 21 Dec 10:39:46 10:43:56 59° 257° (WSW) 10:48:08 145.865
VELOX 1 21 Dec 10:42:22 10:46:11 27° 92° (E) 10:49:59 145.980
ESTCUBE 1 21 Dec 10:48:04 10:51:11 18° 85° (E) 10:54:17 437.505/2401.250
COMPASS 1 21 Dec 10:51:02 10:55:17 62° 294° (WNW) 10:59:30 437.405
CINEMA 3 21 Dec 10:52:21 10:56:59 83° 107° (ESE) 11:01:50 145.822/145.860
QB50P1 21 Dec 10:54:31 10:58:35 46° 260° (W) 11:02:42 145.935-145.965
ANTELSAT 21 Dec 10:57:03 11:01:12 36° 265° (W) 11:05:28 437.575/2403.000
SEEDS 21 Dec 10:57:46 11:01:58 51° 297° (WNW) 11:06:08 437.485
CUSAT 1 21 Dec 11:02:12 11:06:46 74° 293° (WNW) 11:13:01 437.405
CUTE 1.7 + AOD 2 21 Dec 11:02:21 11:06:29 44° 299° (WNW) 11:10:36 437.475
DELFI C3 21 Dec 11:02:34 11:06:45 85° 107° (ESE) 11:10:53 145.870
50 SAT 21 Dec 11:03:35 11:07:25 35° 96° (E) 11:11:15 437.505
FUNcube-1 21 Dec 11:04:02 11:08:29 60° 103° (ESE) 11:13:00 145.935
UWE-3 21 Dec 11:06:51 11:11:23 70° 105° (ESE) 11:16:01 435.000/436.395/437.385
Oscar 19 21 Dec 11:07:04 11:11:30 30° 48° (NE) 11:15:57 437.125/150
O/OREOS (USA 219) 21 Dec 11:08:23 11:12:01 24° 251° (WSW) 11:15:39 437.305
AO-7 21 Dec 11:08:49 11:15:34 29° 8° (N) 11:22:19 29.400- 29.500
JAS-2 21 Dec 11:11:51 11:15:01 14° 359° (N) 11:18:01 435.910
Cubesat XI-IV 21 Dec 11:13:39 11:16:11 14° 338° (NNW) 11:18:44 437.490
DX 1 21 Dec 11:20:15 11:24:38 85° 291° (WNW) 11:29:00 434.975-435.025
POPSAT HIP 1 21 Dec 11:23:57 11:27:39 29° 266° (W) 11:31:23 437.405
ITAMSAT 1 21 Dec 11:25:19 11:29:19 23° 41° (NE) 11:33:20 435.822/435.867
Gurwin Techsat 1B 21 Dec 11:25:49 11:29:31 20° 36° (NE) 11:33:14 435.225
AISAT 21 Dec 11:25:53 11:30:15 54° 102° (ESE) 11:34:37 437.250
BRITE-PL 21 Dec 11:27:15 11:31:14 33° 304° (NW) 11:35:28 437.365/2234.400
CUBEBUG 1 21 Dec 11:28:55 11:32:48 31° 94° (E) 11:36:40 437.445
HUMSAT D 21 Dec 11:32:02 11:36:21 66° 104° (ESE) 11:40:41 437.325/437.525
MaSat-1 21 Dec 11:33:06 11:35:13 38° 327° (NNW) 11:37:19 437.345
TIGRISAT 21 Dec 11:33:07 11:36:36 22° 272° (W) 11:40:10 435.000
Oscar 11 21 Dec 11:41:28 11:45:43 49° 298° (WNW) 11:49:56 145.826/435.025
CUTE-I 21 Dec 11:46:51 11:48:40 12° 346° (NNW) 11:50:29 437.470
BUGSAT 1 21 Dec 11:47:00 11:50:14 22° 269° (W) 11:53:28 437.445
